TimeCST,TemperatureF,Dew PointF,Humidity,Sea Level PressureIn,VisibilityMPH,Wind Direction,Wind SpeedMPH,Gust SpeedMPH,PrecipitationIn,Events,Conditions,WindDirDegrees,DateUTC
12:00 AM,67,65,91,29.83,9,WNW,4.6,,,Rain,Light Rain,290,2012-10-25 06:00:00
12:00 AM,66.2,64.4,94,29.97,6.2,WNW,4.6,-,N/A,Rain,Light Rain,290,2012-10-25 06:00:00
1:00 AM,66.2,64.4,94,29.96,3.1,West,4.6,-,N/A,Rain,Rain,260,2012-10-25 07:00:00
2:00 AM,66.2,64.4,94,29.94,6.2,North,3.5,-,N/A,Rain,Rain,360,2012-10-25 08:00:00
3:00 AM,66,65,94,29.80,12,NNE,4.6,,,,Scattered Clouds,30,2012-10-25 09:00:00
3:00 AM,66.2,64.4,94,29.93,6.2,NNE,4.6,-,N/A,,Mostly Cloudy,30,2012-10-25 09:00:00
4:00 AM,66.2,64.4,94,29.94,6.2,SSE,2.3,-,N/A,,Mostly Cloudy,160,2012-10-25 10:00:00
5:00 AM,66.2,64.4,94,29.96,6.2,West,2.3,-,N/A,Fog,Light Drizzle,270,2012-10-25 11:00:00
5:05 AM,66.2,53.6,64,29.96,1.2,West,2.3,-,N/A,Rain,Light Rain,270,2012-10-25 11:05:00
6:00 AM,66,65,94,29.86,1,WNW,2.3,,,Rain,Light Rain,290,2012-10-25 12:00:00
6:00 AM,66.2,64.4,94,29.98,1.2,WNW,2.3,-,N/A,Rain,Light Rain,290,2012-10-25 12:00:00
7:00 AM,68.0,66.2,94,30.00,3.1,West,4.6,-,N/A,,Drizzle,280,2012-10-25 13:00:00
8:00 AM,68.0,66.2,94,30.02,5.6,WNW,3.5,-,N/A,Fog,Light Drizzle,290,2012-10-25 14:00:00
9:00 AM,72,66,75,29.88,12,WSW,4.6,,,,Partly Cloudy,250,2012-10-25 15:00:00
9:00 AM,73.4,64.4,73,30.01,6.2,West,4.6,-,N/A,,Mostly Cloudy,270,2012-10-25 15:00:00
10:00 AM,73.4,64.4,73,30.01,6.2,West,4.6,-,N/A,,Mostly Cloudy,270,2012-10-25 16:00:00
10:29 AM,75.2,66.2,73,30.00,6.2,WSW,8.1,-,N/A,Rain,Heavy Rain,250,2012-10-25 16:29:00
11:00 AM,69.8,66.2,88,29.98,3.1,WSW,8.1,-,N/A,Rain,Rain,240,2012-10-25 17:00:00
12:00 PM,67,66,95,29.85,1,West,6.9,,,Rain,Heavy Rain,260,2012-10-25 18:00:00
12:00 PM,68.0,66.2,94,29.97,0.6,West,6.9,-,N/A,Rain,Heavy Rain,260,2012-10-25 18:00:00
12:05 PM,68.0,66.2,94,29.96,3.7,SW,4.6,-,N/A,Fog-Rain,Rain,220,2012-10-25 18:05:00
1:00 PM,68.0,66.2,94,29.95,3.1,WSW,10.4,-,N/A,Rain,Rain,250,2012-10-25 19:00:00
1:20 PM,66.2,66.2,100,29.96,1.2,West,9.2,-,N/A,Rain,Rain,260,2012-10-25 19:20:00
2:00 PM,66.2,66.2,100,29.95,1.2,West,6.9,-,N/A,Rain,Rain,260,2012-10-25 20:00:00
3:00 PM,66.2,66.2,100,29.94,5.0,NNW,4.6,-,N/A,Fog-Rain,Light Rain,330,2012-10-25 21:00:00
4:00 PM,68.0,66.2,94,29.93,6.2,NNE,5.8,-,N/A,Fog-Rain,Light Rain,20,2012-10-25 22:00:00
5:00 PM,68.0,64.4,88,29.92,6.2,South,1.2,-,N/A,Fog-Rain,Light Rain,180,2012-10-25 23:00:00
6:00 PM,67,65,89,29.87,12,SSW,2.3,,,Rain,Light Drizzle,200,2012-10-26 00:00:00
6:00 PM,68.0,64.4,88,29.95,6.2,SSW,2.3,-,N/A,Fog,Mostly Cloudy,200,2012-10-26 00:00:00
7:00 PM,68.0,64.4,88,29.97,6.2,WNW,1.2,-,N/A,Fog,Patches of Fog,300,2012-10-26 01:00:00
8:00 PM,68.0,66.2,94,29.99,6.2,NNW,2.3,-,N/A,Fog,Patches of Fog,330,2012-10-26 02:00:00
9:00 PM,66.2,64.4,94,29.99,6.2,ESE,2.3,-,N/A,,Mostly Cloudy,120,2012-10-26 03:00:00
10:00 PM,66.2,64.4,94,30.00,-9999.0,East,2.3,-,N/A,,Clear,90,2012-10-26 04:00:00
11:00 PM,66.2,64.4,94,29.99,-9999.0,NE,1.2,-,N/A,,Clear,40,2012-10-26 05:00:00